SKY MEXICO-1

Last updated on Mon Oct 20 2025 00:02:48 GMT+0000 (Coordinated Universal Time)

1 40664U 15026B 25292.30492713 .00000000 00000+0 00000+0 0 9991 2 40664 0.0210 237.6835 0001972 327.9265 213.4286 1.00269855 38038
UTC large
Height (km)
Speed (km/s)
/
Latitude / Longitude
Inclination (degrees)
Orbital Period (minutes)
Azimuth
Elevation
Range (km)
Doppler Factor

Next 0 passes for location: London (51.5072 / 0.1276)

Sorry there are no passes over London.